Temp
20 20 21 21 21 21 21 22 23 23 24 24 24 24 24 24 24 23 25 30 30 29 29 29 29 29 29 31 30 30 33 32 32 33 34 32 32 31 31 30 29 28 27 26 22
20 20 20 20 21 21 22 22 23 23 23 24 24 24 24 24 23 22 31 31 30 30 30 30 31 30 31 30 30 32 32 32 33 33 33 32 32 31 31 30 28 26 25 23 23
19 20 20 20 21 21 22 22 23 23 23 24 24 24 24 23 25 31 31 30 30 30 31 30 29 31 32 31 31 30 33 32 34 33 33 33 32 32 31 30 29 27 25 24 23
19 20 20 20 21 21 22 22 22 23 22 23 23 24 23 22 31 30 30 30 29 30 30 30 31 32 32 33 31 33 32 32 34 34 33 32 33 32 32 32 31 28 26 25 25
19 20 20 20 21 21 23 23 22 22 22 22 23 23 23 26 29 29 31 30 29 29 30 31 32 32 33 33 32 32 33 34 34 34 32 32 32 31 32 30 29 27 26 26 25
19 19 20 20 21 22 23 23 23 22 22 22 22 22 22 29 28 29 30 29 30 29 29 30 32 32 32 32 32 32 33 34 33 34 33 33 32 33 29 29 28 27 27 27 26
18 19 19 20 21 22 24 23 23 21 22 21 21 21 24 30 28 28 29 29 29 29 31 30 31 32 32 32 32 32 33 34 34 35 33 34 32 32 29 29 28 27 27 26 26
18 19 20 20 21 23 24 24 23 21 22 21 22 21 28 28 28 28 28 28 28 29 29 30 30 32 32 32 32 32 32 36 35 35 32 35 34 29 29 29 28 27 27 26 26
18 18 20 20 21 23 24 23 22 21 21 21 20 22 30 27 27 28 29 29 28 28 29 30 31 31 32 32 33 32 35 34 35 35 35 35 34 29 30 30 29 28 27 27 27
17 18 19 21 21 23 22 21 21 21 20 20 20 25 28 30 29 29 29 29 31 30 31 31 31 32 31 33 34 33 34 33 34 35 35 36 31 29 29 30 29 29 28 28 28
16 18 19 21 21 21 20 20 23 24 21 28 29 29 30 30 29 29 30 30 31 32 32 30 32 33 34 33 32 32 32 33 34 33 35 34 31 30 29 30 30 29 28 28 29
16 17 19 21 22 21 21 24 24 23 26 26 26 27 28 29 31 30 30 32 31 32 30 31 32 33 31 31 31 31 33 34 33 32 34 32 31 30 30 30 31 30 30 30 29
15 16 19 21 21 21 20 23 22 22 26 28 27 28 30 30 32 31 32 31 31 31 31 32 33 31 32 31 33 33 34 33 35 33 32 33 33 31 30 30 30 30 31 30 30
14 16 18 20 21 20 21 23 23 23 28 29 29 31 30 31 32 32 32 33 31 32 31 32 32 32 32 33 34 35 33 34 33 34 34 32 34 31 31 31 31 31 31 31 30
14 15 17 17 17 19 23 24 23 24 28 30 29 29 29 33 32 31 31 33 32 31 31 33 33 32 34 35 34 34 33 33 33 33 33 32 34 35 30 32 32 32 32 31 31
14 15 16 16 16 23 23 24 24 28 27 30 30 30 31 32 32 31 32 33 32 32 31 32 32 33 35 32 33 31 32 31 31 33 33 31 33 34 33 33 35 33 32 31 31
15 17 16 15 21 23 23 25 27 27 29 30 31 30 32 31 31 32 31 31 32 31 32 32 33 33 34 34 32 32 34 33 32 33 33 29 30 34 31 32 33 34 32 31 31
16 18 18 20 21 21 21 27 25 28 29 31 30 30 31 31 32 31 31 31 30 31 31 33 33 34 34 35 35 33 34 33 31 32 32 28 32 34 30 30 31 32 32 31 31
16 17 16 19 20 19 24 26 27 27 30 30 30 31 31 31 32 31 31 32 33 31 33 32 33 33 32 33 34 31 34 31 30 26 31 31 31 32 30 29 30 31 30 30 31
11 10 14 17 18 19 25 25 27 27 28 30 31 31 31 31 31 31 30 32 32 32 32 32 33 32 31 32 31 33 30 32 31 30 30 31 30 33 31 30 30 30 30 30 30
10 17 17 16 17 22 25 25 26 26 27 29 30 30 31 30 32 31 32 32 33 31 32 32 31 32 32 32 33 31 32 29 31 30 32 31 32 31 31 31 30 30 31 30 30
9 19 15 15 22 19 24 24 25 28 28 29 29 30 30 30 31 31 32 33 31 31 31 32 32 32 32 29 29 31 32 32 33 29 28 30 32 31 29 29 30 30 30 30 30
11 13 15 16 22 22 21 25 26 27 28 29 30 30 29 30 30 30 31 30 30 32 31 30 31 31 31 31 31 32 29 28 28 29 28 31 33 29 29 29 29 30 29 27 28
10 17 18 18 17 20 23 25 26 26 28 28 29 29 29 30 29 29 30 29 29 31 24 30 28 33 33 33 32 30 29 29 32 31 30 31 32 31 30 30 29 28 28 28 27
9 15 13 20 20 20 20 24 26 27 27 27 27 29 29 30 30 30 30 29 28 24 26 31 30 28 28 30 31 31 30 29 30 30 32 31 29 31 30 28 28 27 26 26 25
11 12 13 15 15 17 19 23 24 26 27 27 27 28 29 29 31 30 30 30 31 27 28 26 27 28 28 29 30 30 30 30 30 28 29 29 29 29 27 26 26 26 25 25 24
6 7 10 15 16 18 22 23 23 23 25 27 27 28 27 28 30 28 27 28 30 29 27 27 27 28 28 27 29 28 30 30 29 29 30 29 30 27 27 26 25 25 25 25 25
Height
800 797 795 792 788 784 780 777 775 773 772 772 772 773 773 773 773 774 772 768 768 771 772 773 775 775 775 774 774 773 787 797 794 790 783 778 783 780 780 787 790 795 799 805 817
800 798 794 791 787 784 780 776 773 772 771 770 770 772 772 773 773 771 765 765 767 770 771 772 773 773 775 777 777 781 795 793 779 776 777 777 779 782 786 790 798 803 807 813 820
800 797 794 790 786 783 779 775 772 770 769 768 768 771 772 773 773 760 759 764 767 770 771 773 774 775 779 779 781 784 790 783 774 770 768 775 780 777 784 795 793 803 809 815 820
799 796 793 789 785 781 777 773 771 769 768 767 768 770 772 773 781 759 759 763 767 770 772 773 775 778 782 785 780 788 779 779 771 767 771 777 774 782 782 785 785 796 805 813 818
799 795 792 788 784 779 775 771 770 769 767 767 768 770 772 772 765 760 760 763 766 770 771 772 774 777 783 782 782 787 778 773 767 766 771 773 782 785 787 786 789 799 806 812 818
798 794 790 786 782 778 773 769 768 768 767 767 768 770 772 773 761 760 761 763 766 768 771 771 771 772 778 783 786 781 778 772 769 767 770 776 783 780 794 791 795 800 806 811 817
797 793 789 785 780 775 771 768 767 768 767 767 769 770 771 763 760 760 762 764 767 769 771 772 772 774 777 783 779 780 785 773 773 769 776 770 791 790 791 791 798 803 808 814 819
796 792 788 783 778 773 769 767 767 768 768 769 770 770 765 759 760 761 763 765 768 770 771 772 774 775 778 777 781 787 786 786 775 768 776 775 797 795 791 792 800 803 809 814 817
795 790 786 781 776 771 766 766 767 768 769 769 771 770 763 759 760 760 763 764 768 771 773 774 774 779 779 788 793 793 796 794 783 770 773 779 793 795 791 793 800 804 808 811 816
794 789 784 780 774 768 766 767 768 769 769 770 771 772 759 756 756 758 761 764 766 770 773 774 778 784 789 790 804 800 797 795 794 780 775 781 797 795 794 794 799 802 805 808 811
793 788 782 778 773 769 768 768 771 770 769 759 758 757 753 754 755 758 760 762 763 767 780 780 788 792 782 782 785 791 794 795 787 781 781 787 798 795 795 795 798 800 804 805 807
791 786 781 776 771 770 769 767 768 771 767 755 757 756 752 752 757 757 759 764 768 780 780 787 790 776 779 784 788 791 793 793 789 785 783 795 801 797 796 795 794 797 799 801 805
790 785 779 774 770 770 768 768 767 767 769 754 752 751 749 751 754 756 756 761 770 781 782 786 778 774 779 786 788 787 786 791 789 789 788 792 802 802 796 794 794 794 795 798 801
789 783 779 772 772 769 767 767 764 765 775 759 752 743 745 745 756 748 752 756 768 776 781 781 770 776 780 782 777 789 778 782 788 791 807 798 816 804 796 795 792 789 792 795 798
786 782 778 776 773 770 767 765 763 765 799 751 749 738 740 745 746 752 749 754 769 773 777 776 774 777 779 772 773 783 777 785 790 796 800 807 810 792 800 796 787 783 785 788 792
783 780 775 774 771 765 764 763 764 783 797 754 741 746 748 746 748 750 752 751 756 769 771 770 762 764 762 769 771 777 783 791 796 797 816 814 812 800 795 783 775 777 780 782 787
778 775 772 771 766 763 763 763 783 792 751 753 749 744 743 752 754 753 760 767 772 788 785 773 768 761 758 773 776 778 786 813 820 819 820 818 821 792 787 779 775 772 775 777 782
772 767 763 761 761 762 762 767 793 761 756 737 743 746 752 748 752 757 763 771 767 769 780 783 792 766 758 763 773 783 781 805 835 828 820 822 816 791 783 777 773 768 771 777 780
766 761 758 754 754 760 761 775 764 756 740 741 744 751 753 748 748 756 759 762 756 761 774 784 782 760 761 760 765 789 790 792 814 834 823 816 801 781 780 779 775 773 775 778 779
766 761 754 752 752 758 760 761 752 743 737 736 747 740 753 750 753 755 763 749 754 752 751 767 784 767 770 761 770 769 783 801 804 832 835 819 818 800 788 784 779 777 775 776 778
768 758 751 749 754 755 754 750 745 736 736 739 741 743 741 747 742 752 752 746 740 751 751 761 773 779 770 775 775 785 787 801 799 812 819 829 811 782 782 778 777 774 772 774 776
772 758 751 751 752 756 747 742 735 731 731 733 733 733 736 737 742 745 746 737 733 739 758 755 766 778 779 774 773 772 779 779 794 822 821 815 804 773 778 776 774 772 773 773 776
774 764 752 751 746 748 746 735 731 731 729 731 732 728 728 734 746 739 739 733 734 737 748 755 769 788 789 779 773 776 785 789 793 797 816 810 796 776 775 775 772 771 772 777 779
776 755 749 749 749 744 739 735 734 725 726 726 727 726 729 733 734 740 740 738 736 735 745 741 768 764 778 768 767 783 783 785 779 796 801 794 787 778 776 775 773 775 774 775 777
776 760 763 742 743 741 742 730 730 728 724 725 730 728 730 737 736 736 734 738 739 747 747 744 765 772 774 766 765 771 778 784 785 787 790 790 795 780 777 779 773 772 776 779 782
770 768 763 755 753 746 742 731 728 724 722 725 730 723 726 732 724 733 728 731 731 744 746 753 774 770 778 772 766 775 774 776 781 790 790 790 790 776 776 775 776 777 779 781 784
776 775 772 752 747 743 730 729 727 725 719 715 718 723 728 721 715 719 720 720 719 731 747 752 765 771 784 780 775 791 775 774 779 779 776 789 777 778 776 777 778 779 779 781 783
Wind_Speed
22 22 21 21 21 22 22 14 11 9 8 6 6 5 4 4 5 4 6 5 4 8 6 8 4 2 2 2 3 1 3 5 4 5 4 7 2 3 6 10 5 4 6 17 25
22 22 22 22 22 21 23 15 10 8 8 6 6 6 4 3 4 9 7 7 8 12 6 4 3 2 2 2 1 2 2 3 3 5 6 6 4 8 5 10 5 13 18 26 24
23 23 23 24 23 21 24 16 10 8 8 5 6 7 5 2 2 5 4 11 10 12 6 4 7 1 2 1 1 1 3 2 4 7 6 7 7 4 9 6 7 15 20 23 23
24 24 24 25 25 22 25 17 8 6 7 3 7 9 6 4 5 2 1 16 14 12 9 6 3 2 1 2 1 4 4 5 5 3 2 8 11 6 5 5 11 20 24 22 19
25 25 26 26 27 25 26 15 6 4 5 0 10 10 5 2 5 1 5 15 15 12 7 4 3 2 2 2 1 2 4 4 9 11 3 10 7 4 7 9 18 22 22 20 17
26 26 27 27 27 27 26 12 3 2 2 4 10 10 2 5 2 3 12 17 14 10 5 4 2 2 1 1 1 2 8 15 6 2 3 10 6 2 5 13 19 21 19 18 18
27 28 28 28 28 28 25 8 1 0 1 7 10 5 2 1 1 5 15 15 14 8 4 2 2 1 1 2 1 3 7 6 3 6 5 10 6 2 15 16 18 18 16 15 15
28 28 29 30 29 28 22 3 1 2 4 8 5 2 4 3 2 11 13 11 9 7 2 2 0 1 2 1 1 2 1 2 3 4 5 5 4 8 16 18 17 17 15 15 16
28 29 29 30 30 30 13 2 6 3 4 5 2 1 2 1 4 9 12 9 10 8 5 1 1 1 2 0 2 1 3 2 2 0 6 5 4 10 14 14 15 15 15 14 14
28 30 30 29 32 23 4 5 6 4 3 1 2 3 3 3 6 10 9 15 4 9 4 3 2 1 2 4 2 2 4 2 1 2 4 6 5 10 12 12 14 14 14 14 15
29 30 30 28 31 7 5 3 2 2 3 5 1 2 1 3 10 5 8 6 4 3 5 2 4 8 7 7 1 2 2 2 2 2 2 2 5 9 11 11 12 13 13 14 14
30 31 29 27 24 2 4 1 5 2 6 7 8 6 6 2 5 6 11 5 3 9 5 4 8 4 4 5 4 5 6 3 5 3 2 4 5 7 10 11 11 12 13 13 11
30 31 30 29 13 2 7 4 6 1 3 4 5 5 4 7 5 12 12 5 4 6 9 5 3 5 3 5 6 2 1 3 4 6 7 7 2 3 6 10 10 12 11 12 13
31 31 30 30 2 13 2 1 15 11 2 4 6 6 6 6 4 5 13 4 3 11 6 5 2 5 6 5 6 4 5 3 7 5 3 3 8 4 6 10 14 14 14 14 14
31 32 30 22 15 4 1 14 2 3 3 4 4 3 4 10 9 7 6 3 7 8 5 3 5 6 6 4 6 2 4 4 3 4 5 3 5 4 4 11 17 16 16 15 15
31 32 31 10 12 10 9 11 3 2 6 4 6 8 11 6 4 5 9 2 2 5 2 3 1 3 2 4 2 10 4 5 4 2 5 3 5 6 8 17 14 12 13 15 15
33 29 24 16 4 4 11 1 3 5 2 6 5 9 16 8 6 8 15 14 7 6 7 3 3 1 2 7 5 2 3 3 4 4 1 3 3 5 4 8 11 15 13 13 14
34 29 16 17 7 6 3 3 7 4 6 1 4 8 14 10 6 6 13 15 6 2 4 7 8 7 5 4 4 3 1 1 3 2 2 2 4 1 5 10 9 11 10 10 12
33 16 10 6 9 10 3 9 8 7 2 4 4 8 10 7 6 7 12 15 12 10 4 6 5 1 1 3 2 5 5 3 5 2 3 0 2 7 5 1 7 11 10 12 12
21 9 6 4 4 9 5 9 6 5 2 3 9 7 15 15 9 12 11 7 9 14 6 3 7 1 5 4 12 3 9 4 1 2 3 2 3 4 2 5 8 12 13 12 12
5 4 4 4 14 4 10 8 8 6 4 4 3 8 7 9 15 9 12 4 13 12 11 6 3 5 4 1 7 6 4 6 4 2 2 3 1 4 5 8 12 14 14 14 13
6 3 4 16 5 2 8 7 7 6 4 5 3 4 8 11 12 10 12 8 9 16 12 7 2 5 3 3 2 1 5 6 5 5 0 3 5 4 5 7 12 14 13 13 12
4 3 1 4 6 5 3 13 6 8 7 6 4 5 3 7 5 8 10 3 10 11 13 10 4 5 5 4 3 3 4 4 6 3 7 5 5 1 4 6 11 15 14 11 11
3 2 2 3 0 2 9 8 13 6 5 4 3 1 2 4 3 8 6 2 6 7 5 10 4 10 11 14 5 6 8 8 4 5 6 7 8 5 4 6 6 9 10 12 13
2 1 2 3 6 5 2 5 15 12 6 6 4 10 5 5 5 6 4 6 5 7 4 5 6 4 1 6 7 9 13 11 7 5 6 2 5 5 5 6 7 6 6 8 9
2 2 2 3 3 3 5 5 11 13 10 9 6 4 13 9 8 8 8 6 5 4 4 1 5 5 4 3 8 8 10 9 6 6 4 5 6 4 5 5 3 1 5 7 8
1 1 2 1 2 3 6 6 5 2 7 4 8 6 6 16 9 4 3 6 6 9 5 5 8 5 7 3 8 4 13 12 6 8 6 6 5 3 6 7 4 3 7 9 10
Wind_Direction
11 12 9 5 5 2 356 343 334 328 318 288 249 227 228 241 273 266 246 203 148 167 149 131 128 102 68 54 20 321 38 39 8 344 358 153 154 134 91 130 78 50 116 135 147
9 7 6 5 4 358 356 343 333 330 328 294 234 206 201 227 273 252 234 219 185 161 136 137 129 88 65 53 47 49 62 338 306 297 291 156 175 141 139 136 90 82 105 132 146
8 6 4 3 1 356 353 343 330 327 330 299 208 184 176 184 263 255 242 196 171 164 152 114 121 85 93 345 51 109 357 308 294 302 288 160 143 151 137 183 163 147 141 146 152
5 3 2 360 357 355 350 343 324 323 329 302 179 167 161 147 181 305 265 176 161 156 145 136 141 137 101 24 136 317 264 258 294 304 333 154 143 161 160 20 150 149 149 154 163
2 0 359 357 355 353 348 341 318 320 329 284 162 156 146 180 253 202 163 172 167 165 160 152 140 150 29 343 335 256 300 288 290 301 187 129 153 104 181 90 130 141 152 161 170
360 358 356 355 353 350 347 341 309 320 331 149 158 157 163 203 297 171 172 169 174 165 158 167 123 85 21 271 286 295 287 296 316 257 164 160 149 150 104 130 138 150 162 165 173
357 355 354 352 350 346 344 342 269 32 104 143 148 147 203 174 280 153 173 176 175 164 160 209 107 24 98 271 3 285 294 296 186 183 146 135 122 153 149 150 149 158 165 167 178
356 352 351 351 348 344 340 345 150 100 122 137 145 154 244 278 183 152 157 165 176 182 142 106 67 299 237 302 354 293 239 191 88 164 133 222 106 124 160 158 161 161 169 176 186
352 350 349 349 346 341 338 139 134 117 125 145 119 240 222 163 184 174 165 158 161 188 196 205 120 85 173 288 257 351 146 168 115 313 151 222 121 157 174 171 162 166 175 184 191
350 348 347 349 344 343 70 131 126 115 127 138 257 256 208 188 159 152 161 151 153 148 157 165 91 235 113 209 132 97 127 176 179 127 194 183 100 156 176 184 170 172 180 193 197
349 346 346 348 344 358 93 109 219 161 196 223 212 279 278 112 136 155 159 154 121 128 170 73 216 222 207 210 170 162 166 136 107 2 172 199 133 177 179 195 183 181 184 199 212
348 344 344 344 343 41 357 120 90 329 300 233 241 272 258 249 145 146 160 159 158 170 139 174 233 238 198 189 232 190 162 144 105 23 186 164 93 185 198 209 208 197 197 199 198
347 344 342 340 339 348 323 150 334 214 254 273 197 207 201 175 182 174 180 142 154 161 189 204 118 144 186 169 182 146 157 168 143 104 77 137 144 168 209 220 219 221 219 210 207
345 342 341 339 354 332 263 218 325 174 311 224 206 218 155 178 198 167 177 156 169 197 171 247 228 203 181 199 200 165 186 145 138 177 165 323 211 227 209 221 229 220 214 211 210
341 339 336 337 302 275 233 331 98 184 272 146 165 131 155 179 136 187 174 123 187 165 178 159 178 175 186 169 184 111 114 111 103 106 159 182 234 197 204 233 231 220 217 215 211
334 333 331 326 295 271 294 334 161 229 245 179 146 161 159 182 146 120 171 115 93 151 227 262 267 244 147 90 76 144 95 63 77 109 217 136 239 224 214 231 221 224 222 213 206
329 323 314 286 244 278 319 236 182 221 338 176 176 173 178 168 139 163 178 188 185 168 205 196 196 230 175 118 115 157 150 155 193 200 234 116 192 276 237 265 235 221 218 208 201
326 319 304 266 249 269 194 170 214 224 232 3 138 156 187 159 181 155 165 191 217 159 152 189 188 182 165 213 166 163 210 152 203 231 123 151 230 149 305 284 246 229 204 198 197
327 318 287 270 241 208 198 206 208 208 219 177 128 165 188 192 179 171 190 199 205 194 192 170 214 117 70 123 204 152 158 76 109 104 248 53 248 264 341 8 192 190 183 193 196
326 317 265 287 202 160 194 219 224 220 275 207 208 190 187 191 178 194 177 188 199 203 214 180 189 115 137 120 56 208 135 151 81 197 281 161 268 277 299 222 195 197 193 187 193
331 301 342 192 144 185 205 208 222 234 235 222 221 192 211 176 197 186 191 182 201 178 197 163 237 146 176 198 155 145 142 67 106 328 281 299 275 219 251 223 214 205 197 191 192
335 258 7 145 175 209 205 193 192 216 177 244 251 234 190 179 174 187 194 215 168 155 178 177 175 147 148 343 280 42 141 162 212 188 138 300 279 174 265 254 217 214 211 210 206
314 279 127 207 206 210 231 214 221 197 197 190 238 235 187 183 177 204 199 148 156 161 166 173 205 148 142 146 172 186 138 118 106 127 190 240 271 139 295 254 222 217 214 207 204
280 270 209 196 304 253 201 211 211 206 223 194 243 235 192 198 223 177 166 124 169 193 76 139 134 210 212 219 148 172 169 166 181 196 171 232 285 293 320 294 246 235 224 205 200
213 295 360 197 207 240 253 218 206 205 211 190 199 225 207 211 176 172 149 130 117 153 98 169 165 166 96 157 158 166 163 163 184 172 232 156 220 285 315 320 299 238 218 202 192
300 321 340 280 282 220 197 213 214 201 183 198 213 181 215 219 204 187 164 184 170 151 131 99 133 144 121 137 162 157 164 175 157 160 148 199 257 265 318 306 285 229 167 171 165
353 248 276 280 221 206 212 232 228 235 212 211 202 219 210 224 221 326 80 88 141 148 138 131 142 173 152 130 116 153 193 180 164 179 179 216 276 325 295 310 304 186 167 162 161